Danville, VA

10:46 AM EDT on April 28, 2017 (GMT -0400)
Danville Regional

Weather History for KDAN - July, 2014

Change the Weather History Date:

Monday, July 14, 2014

  Actual Average Record
Temperature  
Mean Temperature 83 °F 78 °F  
Max Temperature 96 °F 88 °F 105 °F (1954)
Min Temperature 70 °F 69 °F 57 °F (1976)
Degree Days  
Heating Degree Days 0 0  
Month to date heating degree days 0 0  
Since 1 June heating degree days 0 3  
Since 1 July heating degree days 0 0  
Cooling Degree Days 18 13  
Month to date cooling degree days 202 182  
Year to date cooling degree days 708 623  
Since 1 June cooling degree days 547 479  
Growing Degree Days 33 (Base 50)    
Moisture  
Dew Point 69 °F    
Average Humidity 60    
Maximum Humidity 84    
Minimum Humidity 36    
Precipitation  
Precipitation 0.00 in 0.17 in 2.34 in (1990)
Month to date precipitation 2.13 2.00  
Year to date precipitation 21.92 23.73  
Snow  
Snow 0.00 in - - ()
Month to date snowfall 0.0  
Since 1 June snowfall 0.0  
Since 1 July snowfall 0.0  
Snow Depth 0.00 in    
Sea Level Pressure  
Sea Level Pressure 29.92 in    
Wind  
Wind Speed 5 mph (SW)    
Max Wind Speed 16 mph    
Max Gust Speed 23 mph    
Visibility 10 miles    
Events      
T = Trace of Precipitation, MM = Missing Value Source: NWS Daily Summary

Daily Weather History Graph

Daily Weather History Graph

Search for Another Location

Airport or City:

Trip Planner

Search our weather history database for the weather conditions in past years. The results will help you decide how hot, cold, wet, or windy it might be!

Date:

Astronomy

Jul. 14, 2014 Rise Set
Actual Time 6:10 AM EDT 8:36 PM EDT
Civil Twilight 5:40 AM EDT 9:05 PM EDT
Nautical Twilight 5:03 AM EDT 9:42 PM EDT
Astronomical Twilight 4:22 AM EDT 10:23 PM EDT
Moon 10:11 PM EDT (7/14) 8:45 AM EDT (7/14)
Length of Visible Light 15h 25m
Length of Day
14h 26m
Waning Gibbous, 93% of the Moon is Illuminated
Jul 14
Waning Gibbous
Jul 18
Last Quarter
Jul 26
New
Aug 3
First Quarter
Aug 10
Full

Hourly Weather History & Observations

Time (EDT) Temp. Heat Index Dew Point Humidity Pressure Visibility Wind Dir Wind Speed Gust Speed Precip Events Conditions
12:53 AM 73.9 °F - 66.9 °F 79% 29.97 in 10.0 mi SSW 3.5 mph - N/A   Clear
1:53 AM 72.0 °F - 66.9 °F 84% 29.97 in 10.0 mi Calm Calm - N/A   Clear
2:53 AM 73.0 °F - 66.0 °F 79% 29.96 in 10.0 mi Calm Calm - N/A   Clear
3:53 AM 71.1 °F - 66.9 °F 87% 29.96 in 10.0 mi Calm Calm - N/A   Clear
4:53 AM 71.1 °F - 66.0 °F 84% 29.96 in 10.0 mi Calm Calm - N/A   Clear
5:53 AM 71.1 °F - 66.9 °F 87% 29.95 in 10.0 mi Calm Calm - N/A   Clear
6:53 AM 73.0 °F - 68.0 °F 84% 29.96 in 10.0 mi SW 3.5 mph - N/A   Clear
7:53 AM 75.9 °F - 70.0 °F 82% 29.96 in 10.0 mi SSW 4.6 mph - N/A   Clear
8:53 AM 80.1 °F 83.2 °F 70.0 °F 71% 29.96 in 10.0 mi SW 8.1 mph - N/A   Clear
9:53 AM 84.0 °F 89.0 °F 71.1 °F 65% 29.95 in 10.0 mi SW 10.4 mph - N/A   Scattered Clouds
10:53 AM 87.1 °F 92.8 °F 71.1 °F 59% 29.95 in 10.0 mi WSW 8.1 mph - N/A   Clear
11:53 AM 89.1 °F 94.1 °F 70.0 °F 53% 29.95 in 10.0 mi WSW 11.5 mph - N/A   Clear
12:53 PM 91.0 °F 97.6 °F 71.1 °F 52% 29.93 in 10.0 mi WSW 9.2 mph - N/A   Clear
1:53 PM 93.0 °F 97.9 °F 69.1 °F 45% 29.90 in 10.0 mi Variable 5.8 mph - N/A   Clear
4:53 PM 95.0 °F 97.0 °F 64.0 °F 36% 29.84 in 10.0 mi SW 11.5 mph - N/A   Clear
6:53 PM 86.0 °F 90.1 °F 69.1 °F 57% 29.84 in 10.0 mi NW 6.9 mph - N/A   Scattered Clouds
7:53 PM 84.9 °F 88.2 °F 68.0 °F 57% 29.84 in 10.0 mi WNW 3.5 mph - N/A   Scattered Clouds
8:53 PM 80.1 °F 82.9 °F 69.1 °F 69% 29.85 in 10.0 mi Calm Calm - N/A   Clear
9:53 PM 79.0 °F - 71.1 °F 77% 29.86 in 10.0 mi Calm Calm - N/A   Overcast
10:53 PM 77.0 °F - 70.0 °F 79% 29.87 in 10.0 mi South 4.6 mph - N/A   Clear
11:53 PM 77.0 °F - 70.0 °F 79% 29.85 in 10.0 mi Calm Calm - N/A   Clear